EHI
0 0 0 0 0 0 0 0 0 1 2 4 6 6 7 8 8 7 11 18 23 21 21 23 24 25 26 25 25 25 24 23 23 25 24 20 16 13 11 11 8 5 4 4
0 0 0 0 0 0 0 0 0 0 1 3 4 5 6 8 10 11 14 21 25 25 24 24 22 22 24 24 23 24 24 24 24 24 22 18 15 15 13 12 9 7 6 6
0 0 0 0 0 0 0 0 0 0 0 1 1 2 4 8 10 13 16 20 24 25 25 23 20 19 20 19 19 22 23 24 23 22 19 16 15 16 14 11 9 8 9 9
0 0 0 0 0 0 0 0 0 0 0 0 0 0 2 5 7 9 12 15 19 22 23 22 20 18 16 15 15 17 19 20 20 18 16 13 13 14 12 8 7 8 10 11
0 0 0 0 0 0 0 0 0 0 0 0 0 0 1 3 4 5 8 11 15 19 20 19 17 15 13 11 11 12 14 15 15 14 13 11 11 11 8 6 6 7 9 11
0 0 0 0 0 0 0 0 0 0 0 0 0 0 1 2 4 5 7 8 12 15 16 15 13 11 9 8 7 8 10 12 11 10 10 9 8 7 6 5 5 6 8 9
0 0 0 0 0 0 0 0 0 0 0 0 0 0 1 2 3 4 5 6 8 10 11 10 9 8 7 6 6 6 8 9 8 8 8 7 5 4 4 3 4 5 6 6
0 0 0 0 0 0 0 0 0 0 0 0 0 0 0 1 1 2 2 3 4 5 5 5 6 7 6 6 5 5 4 4 5 6 6 5 4 3 3 1 1 3 4 4
0 0 0 0 0 0 0 0 0 0 0 0 0 0 0 0 1 0 0 1 1 1 1 1 3 4 4 4 3 2 2 2 2 3 3 2 2 2 2 1 0 1 1 1
0 0 0 0 0 0 0 0 0 0 0 0 0 0 0 0 0 0 0 0 1 1 1 0 1 1 1 1 1 0 1 1 1 1 1 1 1 1 1 0 0 0 0 0
0 0 0 0 0 0 0 0 0 0 0 0 0 0 0 0 0 0 0 0 1 1 1 0 0 0 0 0 0 0 0 0 0 0 1 2 2 1 0 0 0 0 0 0
0 0 0 0 0 0 0 0 0 0 0 0 0 0 0 0 0 0 0 0 1 1 0 0 0 0 0 0 0 0 0 0 0 0 1 2 3 2 1 1 1 1 0 0
0 0 0 0 0 0 0 0 0 0 0 0 0 0 0 0 0 0 0 0 1 0 0 0 0 0 0 0 0 0 0 0 0 0 1 2 3 3 3 2 2 2 1 0
0 0 0 0 0 0 0 0 0 0 0 0 0 0 0 0 0 0 0 0 0 0 0 0 0 0 0 0 0 0 0 0 0 0 0 1 1 3 3 3 3 3 2 1
0 0 0 0 0 0 0 0 0 0 0 0 0 0 0 0 0 0 0 0 0 0 0 0 0 0 0 0 0 0 0 0 0 0 0 0 1 2 3 3 3 3 3 3
0 0 0 0 0 0 0 0 0 0 0 0 0 0 0 0 0 0 0 0 0 0 0 0 0 0 0 0 0 0 0 0 0 0 0 0 0 1 2 3 3 3 3 2
0 0 0 0 0 0 0 0 0 0 0 0 0 1 1 1 0 0 0 0 0 0 0 0 0 0 0 0 0 0 0 0 0 0 0 0 0 0 1 1 2 2 1 1
0 0 0 0 0 0 0 0 0 0 1 1 1 2 2 2 1 0 0 0 0 0 0 0 0 0 0 0 0 0 0 0 0 0 0 0 0 0 0 0 1 1 1 1
0 0 0 0 0 0 0 0 0 0 1 2 2 2 2 2 1 0 0 0 0 0 0 0 0 0 0 0 0 0 0 0 0 0 0 0 0 0 0 0 0 1 2 2
0 0 0 0 0 0 0 0 0 0 1 1 1 1 1 1 1 0 0 0 0 0 0 0 0 0 0 0 0 0 0 0 0 0 0 0 0 0 0 0 0 1 2 3
0 0 0 0 0 0 0 0 0 0 0 0 0 0 0 0 0 0 0 0 0 0 0 0 0 0 0 0 0 0 0 0 0 0 0 0 0 0 0 0 0 1 1 1
0 0 0 0 0 0 0 0 0 0 0 0 0 0 0 0 0 0 0 0 0 0 0 0 0 0 0 0 0 0 0 0 0 0 0 0 0 0 0 0 0 0 0 0
0 0 0 0 0 0 0 0 0 0 0 0 0 0 0 0 0 0 0 0 0 0 0 0 0 0 0 0 0 0 0 0 0 0 0 0 0 0 0 0 0 0 0 0
0 0 0 0 0 0 0 0 0 0 0 0 0 0 0 0 0 0 0 0 0 0 0 0 0 0 0 0 0 0 0 0 0 0 0 0 0 0 0 0 0 0 0 0
0 0 0 0 0 0 0 0 0 0 0 0 0 0 0 0 0 0 0 0 0 0 0 0 0 0 0 0 0 0 0 0 0 0 0 0 0 0 0 0 0 0 0 0
0 0 0 0 0 0 0 0 0 0 0 0 0 0 0 0 0 0 0 0 0 0 0 0 0 0 0 0 0 0 0 0 0 0 0 0 0 0 0 0 0 0 0 0
Wind_Speed
2 3 3 7 7 6 5 4 6 6 3 3 2 1 1 1 3 3 4 5 5 4 3 4 5 6 6 6 6 5 5 4 4 3 3 3 2 2 2 2 2 3 3 3
4 3 9 6 5 4 4 3 5 5 3 2 2 3 2 4 3 3 4 4 5 6 5 6 5 4 5 5 5 4 4 4 3 2 2 2 3 2 2 2 1 2 3 2
3 7 4 2 3 2 3 3 3 3 3 3 3 3 5 5 7 7 6 5 4 6 6 5 4 4 4 4 3 3 3 4 3 3 2 2 2 2 1 1 1 1 2 2
3 5 4 4 3 1 4 5 3 0 2 2 1 1 3 4 7 7 6 5 4 4 4 4 4 3 3 3 3 3 3 3 3 3 3 4 3 2 1 2 1 1 1 2
4 3 3 4 4 2 3 4 2 0 2 2 3 4 3 4 6 5 5 5 4 3 3 3 3 2 2 3 3 3 3 3 2 3 3 3 2 2 1 1 2 1 1 1
4 3 1 2 4 2 2 4 5 5 5 3 2 3 2 3 1 2 3 4 3 2 2 2 2 2 2 3 2 2 3 2 2 2 3 3 3 3 3 2 1 0 0 0
7 6 4 4 6 7 6 6 5 6 5 2 1 4 1 3 2 2 3 3 2 2 2 1 2 1 1 2 2 2 3 1 1 2 2 3 3 3 3 3 2 1 0 1
5 6 6 5 2 1 2 5 5 2 2 2 3 2 1 3 3 4 4 3 3 3 2 1 1 1 2 1 1 1 2 2 2 2 2 2 3 2 1 2 2 2 2 2
2 4 6 6 4 2 3 2 3 4 1 2 2 1 2 6 7 6 5 4 3 2 2 1 1 0 1 1 1 2 2 2 1 1 1 1 2 2 2 2 1 1 1 1
2 2 6 6 6 7 3 2 5 5 3 1 1 1 2 4 4 4 4 3 2 2 2 1 0 1 1 2 1 2 2 2 2 2 2 2 2 2 2 2 1 1 1 1
4 3 6 6 5 5 6 5 4 3 3 3 0 2 1 1 1 1 2 2 1 1 1 1 1 0 1 1 1 1 2 1 2 2 2 2 2 2 2 2 1 1 1 1
4 4 2 4 3 3 5 3 3 4 0 2 2 3 3 1 2 1 2 3 2 1 1 1 1 0 0 1 1 2 2 2 2 2 2 2 2 2 2 2 1 1 1 1
4 5 4 7 8 8 6 6 3 4 3 2 1 3 4 4 4 3 2 2 2 2 2 2 2 1 0 0 1 1 2 2 2 2 2 2 1 2 2 2 1 1 1 1
4 4 4 2 2 3 4 6 5 4 3 1 0 1 3 4 4 3 3 2 2 2 2 2 2 2 1 1 1 2 2 2 2 2 2 2 2 2 2 1 1 1 1 1
5 3 1 0 1 3 6 7 7 5 3 3 1 0 1 2 2 1 1 1 2 2 2 2 2 2 2 1 1 1 2 2 2 2 2 2 2 1 1 1 1 1 1 1
4 2 2 2 4 8 10 10 8 5 4 3 3 1 2 2 2 2 2 1 1 1 2 2 2 2 1 1 1 1 1 2 2 2 2 2 2 1 1 1 1 1 1 1
2 2 3 2 4 4 6 7 6 4 4 3 2 2 3 4 3 1 1 1 1 2 2 2 2 2 1 1 1 2 2 2 2 2 2 2 2 2 2 1 1 1 1 0
2 2 2 1 4 4 1 2 3 4 5 4 3 3 2 2 4 2 0 1 2 3 2 2 2 2 1 1 0 1 1 2 2 2 2 2 2 2 1 1 1 1 0 0
3 4 3 2 2 1 3 5 3 2 3 4 4 4 4 4 5 4 3 2 2 2 2 2 1 1 1 1 0 1 1 1 1 1 2 2 2 2 1 1 1 1 0 0
5 6 4 2 1 0 3 6 4 3 3 4 3 3 4 4 4 4 5 5 4 3 2 2 2 2 2 1 1 2 1 1 1 2 2 2 2 2 2 1 1 1 1 0
4 4 2 1 1 1 4 6 4 3 4 4 2 2 2 2 3 4 4 4 3 3 2 2 2 2 1 1 2 2 1 0 1 1 1 1 1 2 2 1 1 0 0 1
1 1 1 2 1 3 5 3 2 4 3 2 2 1 1 1 1 1 2 3 3 3 3 2 3 2 2 1 2 2 1 1 0 1 1 1 1 1 1 1 0 0 1 1
1 3 3 3 4 4 1 0 2 2 1 2 1 1 0 0 2 2 2 2 2 2 2 2 2 2 2 1 1 1 2 1 1 1 1 0 0 0 0 1 1 0 0 0
3 1 2 1 1 1 1 1 1 1 1 2 1 1 0 0 1 1 1 1 1 2 2 2 2 1 1 1 1 1 1 0 1 1 0 0 1 0 1 1 0 0 1 1
3 1 1 0 1 2 2 1 1 1 2 2 1 0 1 1 0 0 0 0 0 1 1 1 1 0 1 1 1 1 1 1 1 0 1 0 1 1 0 0 0 1 2 3
2 3 3 4 5 3 4 4 2 1 2 1 1 2 1 1 1 0 0 1 0 1 1 1 1 1 1 1 2 2 1 1 1 0 1 0 0 1 1 0 1 2 2 3
Wind_Direction
323 77 248 243 219 216 238 266 279 276 281 73 116 110 48 60 74 89 107 115 114 110 88 89 95 102 102 107 117 130 133 147 147 150 153 148 157 154 156 179 179 166 163 158
15 281 250 250 260 246 250 277 285 296 325 79 135 104 77 63 80 101 110 111 122 103 79 76 82 90 99 105 116 127 141 136 133 149 163 164 153 157 165 169 156 155 155 159
222 262 278 324 335 343 294 267 273 271 351 23 85 45 34 38 60 57 54 71 99 115 113 103 97 90 94 95 110 127 129 122 115 113 98 95 76 67 71 108 151 161 158 157
287 290 337 4 345 354 295 292 281 255 61 320 65 99 4 34 43 40 33 41 74 83 90 101 102 100 104 101 94 92 110 114 118 122 119 125 134 142 192 184 169 157 144 139
299 317 355 355 324 345 284 302 309 108 116 57 20 95 329 32 39 24 24 32 56 79 102 113 124 122 97 91 93 98 97 96 98 122 132 130 119 132 119 108 118 123 111 132
291 324 18 328 329 4 345 15 24 40 65 44 325 106 347 359 21 40 32 48 60 72 82 94 88 79 78 80 97 105 110 125 147 146 142 138 133 133 122 113 119 133 180 203
332 338 350 18 8 358 32 56 30 17 24 296 333 88 41 331 33 86 79 64 54 70 99 113 114 119 83 85 120 109 131 175 169 137 139 151 146 147 155 160 157 159 186 215
5 333 343 359 32 309 359 103 126 163 222 288 10 71 286 333 26 65 73 70 49 39 55 89 136 157 147 157 141 144 163 160 143 137 158 155 147 148 160 167 164 177 197 219
16 308 329 349 2 67 31 37 155 131 74 54 21 32 351 12 18 30 45 51 39 25 19 356 27 23 130 153 185 176 163 151 143 140 149 143 142 146 153 163 164 182 202 218
71 317 333 340 15 18 84 111 66 79 97 50 349 27 320 339 1 9 27 41 22 11 24 354 29 194 144 151 171 144 141 161 171 169 177 160 162 170 168 159 173 208 227 204
52 62 336 2 22 14 23 33 75 87 117 127 314 295 278 269 329 7 16 26 66 54 33 11 309 220 170 124 133 152 156 161 159 178 173 160 165 166 162 160 177 182 191 198
15 88 340 320 332 46 69 59 106 117 55 127 144 269 337 15 319 19 27 17 23 22 27 19 344 345 116 131 137 157 167 167 175 171 155 161 160 148 160 174 193 178 188 222
32 69 23 349 354 9 26 25 46 110 102 92 130 273 343 30 22 27 36 19 15 26 31 24 5 358 312 206 165 167 165 173 173 149 144 145 141 154 172 187 206 207 213 234
74 76 108 135 278 330 2 15 37 80 96 95 173 268 344 12 16 10 17 23 15 48 37 15 1 340 314 248 181 172 164 168 159 149 151 160 175 186 190 189 201 218 220 217
70 74 74 145 326 45 40 29 33 59 110 128 146 90 295 311 325 345 35 45 42 37 11 356 340 325 313 311 189 171 165 161 151 142 147 178 186 183 168 172 200 232 236 230
56 81 26 23 55 61 46 30 28 29 47 82 80 13 320 329 6 36 33 52 43 349 336 332 330 327 309 287 248 166 162 167 148 142 161 178 174 166 166 192 214 243 258 270
25 65 45 335 338 47 30 8 19 35 50 76 68 302 333 0 353 332 348 30 4 326 332 337 328 316 289 275 197 186 194 162 148 163 177 181 176 167 192 195 174 236 259 302
113 83 96 6 30 55 273 317 15 54 56 48 45 -0 5 354 332 325 44 78 351 343 339 333 337 334 318 305 310 191 158 139 150 169 180 177 170 177 186 159 190 251 272 345
132 121 91 77 65 52 335 345 345 57 33 36 39 16 9 11 22 8 0 12 336 318 315 314 307 327 351 348 45 84 94 112 141 175 191 184 167 161 158 169 233 230 142 342
42 71 88 74 86 148 303 323 340 69 11 340 22 10 350 8 17 316 328 345 349 347 342 347 1 23 29 2 71 81 56 43 207 207 196 172 157 156 174 196 212 200 148 227
9 24 61 92 134 265 299 321 22 69 269 296 308 304 316 303 242 260 310 335 348 352 354 13 37 38 10 19 71 72 48 296 248 199 138 125 153 175 189 184 176 141 77 30
120 62 23 71 60 284 311 18 71 232 256 288 316 316 359 332 311 323 340 343 355 10 16 34 48 32 13 43 74 74 341 282 240 114 107 115 170 184 157 150 187 73 95 34
141 183 184 173 206 242 310 172 243 217 266 299 317 300 97 43 314 313 331 341 7 24 19 29 62 42 10 10 76 85 281 280 93 93 90 143 176 176 144 150 184 318 355 263
318 23 96 62 282 297 325 345 346 350 289 276 268 268 175 220 289 313 322 340 3 10 12 20 50 41 345 328 337 258 290 54 86 85 274 223 144 40 4 18 143 181 265 262
261 346 62 330 266 5 335 323 304 311 323 346 5 1 180 147 280 193 226 256 326 345 343 1 35 6 318 330 322 302 337 74 93 29 277 220 155 184 213 11 294 236 242 221
244 187 169 220 222 184 248 265 261 290 303 324 43 20 17 116 129 48 271 245 242 299 338 350 345 326 303 324 330 318 312 92 115 326 301 274 236 227 199 190 340 340 290 286